Flag for India Weather past 2 weeks in Amravati, Maharashtra, India

Now
73 °F

Haze.


Feels Like: 75 °F
Forecast: 70 / 93 °F
Wind: No wind

Location: Nagpur Sonegaon

Current Time: Oct 22, 2014 at 12:31:06 AM

Latest Report: Oct 21, 2014 at 11:40 PM


Visibility: 2 mi

Pressure: 30.01 "Hg

Humidity: 74%

Dew point: 64 °F

Location of AmravatiLocation

Historic Weather in Amravati — Graph

°F

Amravati temperature yesterday

Maximum temperature yesterday: 93 °F (at 1:40 PM)
Minimum temperature yesterday: 68 °F (at 6:40 AM)
Average temperature yesterday: 81 °F

Past Weeks' High & Low Weather Summary

 TemperatureHumidityPressure
High97 °F (Oct 14, 4:40 PM)94% (Oct 16, 1:10 AM)30.07 "Hg (Oct 16, 1:10 AM)
Low68 °F (Oct 18, 6:10 AM)28% (Oct 12, 1:40 PM)29.56 "Hg (Oct 13, 2:40 PM)
Average82 °F67%29.87 "Hg
* Reported Oct 6 10:40 PM — Oct 21 11:10 PM, Amravati, Weather by CustomWeather, © 2014

Note: Actual official high and low records may vary slightly from our data, if they occured in-between our weather recording intervals... More about our weather records

Advertising

Amravati weather history for previous 24 hours

 ConditionsComfort  
Time TempWeatherWind HumidityBarometerVisibility
11:10 PM
Oct 21
75 °FMild.No wind69%30.04 "HgN/A
10:40 PM75 °FHaze.No wind69%30.01 "Hg2 mi
10:10 PM75 °FHaze.No wind69%30.01 "Hg2 mi
9:40 PM75 °FHaze.No wind74%30.01 "Hg2 mi
9:10 PM77 °FHaze.No wind69%30.01 "Hg2 mi
7:40 PM79 °FHaze.No wind65%29.98 "Hg2 mi
7:10 PM81 °FHaze.No wind62%29.98 "Hg2 mi
6:40 PM81 °FHaze.No wind66%29.95 "Hg2 mi
6:10 PM82 °FHaze.No wind62%29.95 "Hg3 mi
5:40 PM84 °FHaze.No wind58%29.92 "Hg3 mi
4:40 PM90 °FClear.3 mph49%29.92 "Hg4 mi
3:40 PM91 °FClear.2 mph44%29.92 "Hg4 mi
3:10 PM91 °FPassing clouds.2 mph44%29.92 "Hg4 mi
2:40 PM93 °FPassing clouds.2 mph41%29.92 "Hg4 mi
2:10 PM93 °FPassing clouds.2 mph44%29.95 "Hg4 mi
1:40 PM93 °FPassing clouds.2 mph44%29.95 "Hg4 mi
1:10 PM91 °FPassing clouds.6 mph46%29.98 "Hg4 mi
12:40 PM91 °FPassing clouds.5 mph52%30.01 "Hg4 mi
12:10 PM91 °FPassing clouds.5 mph52%30.01 "Hg4 mi
11:10 AM90 °FHaze.5 mph55%30.04 "Hg3 mi
10:10 AM84 °FHaze.3 mph70%30.07 "Hg2 mi
9:40 AM82 °FHaze.3 mph70%30.07 "Hg2 mi
8:40 AM79 °FHaze.3 mph74%30.04 "Hg2 mi
8:10 AM75 °FHaze.2 mph78%30.04 "Hg2 mi
7:40 AM73 °FHaze.2 mph89%30.04 "Hg2 mi
7:10 AM70 °FFog.2 mph88%30.04 "Hg1 mi
6:40 AM68 °FFog.No wind88%30.01 "Hg1 mi
5:40 AM72 °FHaze.2 mph83%29.98 "Hg2 mi
5:10 AM72 °FHaze.2 mph83%29.98 "Hg2 mi
2:10 AM72 °FPassing clouds.3 mph83%29.95 "Hg2 mi
12:10 AM75 °FPassing clouds.3 mph78%29.98 "Hg2 mi
Weather by CustomWeather, © 2014

See weather overviewHow to use our weather pages